Location: Cronhütte
(48.9135°N, 9.6869°E)
Time: 03:48:56
(UTC+00:00)

Cosmos 1242 Rocket - Pass Details

Date: 23 May 2024
Orbit: 322 x 337 km, 81.1° (Epoch: 13 June)

Event Time Altitude Azimuth Distance (km) Brightness Sun altitude
Exits shadow 01:16:11 28° 153° (SSE) 710 3.1 -15.6°
Maximum altitude 01:17:18 45° 98° (E) 505 2.8 -15.5°
Drops below altitude 10° 01:20:09 10° 23° (NNE) 1,363 6.2 -15.3°
Sets 01:22:11 0° 17° (NNE) 2,219 7.6 -15.1°
